Regional Weather Roundup
Issued by NWS Upton, NY

Current Version | Previous Version | Text Only | Print | Product List | Glossary On
Versions: 1 2 3 4 5 6 7 8 9 10 11 12 13 14 15 16 17 18 19 20 21 22 23 24 25 26 27 28 29 30 31 32 33 34 35 36 37 38 39 40 41 42 43 44 45 46 47 48 49 50
384
ASUS41 KOKX 181508
RWROKX

Regional Weather Roundup
National Weather Service New York NY
1000 AM EST MON DEC 18 2017

Note: "FAIR" indicates few or no clouds below 12,000 feet with no
significant weather and/or obstructions to visibility.

NYZ071-072-176-178-NJZ106-104-181600-
New York City Metro Area

CITY           SKY/WX    TMP DP  RH WIND       PRES   REMARKS
Central Park   CLOUDY    39  33  79 CALM      30.12F
Bronx Bot Gard   N/A     36  30  80 NE1       30.10F
Bronx Lehman C   N/A     36  32  87 E2          N/A
LaGuardia Arpt CLOUDY    39  32  76 NE8       30.11S WCI  33
Queens College   N/A     37  32  81 N6          N/A  WCI  33
Kennedy Intl   CLOUDY    39  36  89 N6        30.11F WCI  35
Breezy Point     N/A     37 N/A N/A N5          N/A  WCI  34
Brooklyn Coll    N/A     39  34  81 N3          N/A
Staten Island    N/A     36  32  87 N3          N/A
Newark/Liberty CLOUDY    38  32  79 N7        30.11S WCI  33
Teterboro      CLOUDY    36  29  75 N6        30.10F WCI  31
$$

NYZ177-179-078>081-181600-
Long Island New York

CITY           SKY/WX    TMP DP  RH WIND       PRES   REMARKS
Jones Beach      N/A     37 N/A N/A E7          N/A  WCI  32
Wantagh          N/A     37  34  87 NE5         N/A  WCI  34
Matinecock Pt    N/A     37 N/A N/A E7          N/A  WCI  32
Farmingdale    CLOUDY    36  31  82 NE5       30.10F WCI  32
MacArthur/ISP  LGT RAIN  35  32  88 CALM      30.09F
Shirley        CLOUDY    35  32  88 CALM      30.10F
Mt Sinai Harb    N/A    N/A N/A N/A E2          N/A
Westhampton    CLOUDY    37  29  72 N3        30.11F
East Hampton   CLOUDY    41  34  75 SE5       30.10F
Southold         N/A     39  32  75 SE2         N/A
Montauk          N/A     45  36  70 SE5       30.12F
$$

NYZ052-065-067-181600-
Hudson Valley

CITY           SKY/WX    TMP DP  RH WIND       PRES   REMARKS
White Plains   CLOUDY    34  28  79 E5        30.08F WCI  30
Larchmont Harb   N/A     34 N/A N/A N5          N/A  WCI  30
Croton On Huds   N/A     36 N/A N/A CALM        N/A
Somers           N/A     32  27  80 E2          N/A
Brewster         N/A     32  23  69 SE1         N/A
Newburgh       CLOUDY    30  25  80 CALM      30.09F
Montgomery     CLOUDY    30  21  69 SW3       30.08F
Otisville        N/A     32  25  74 S2          N/A
Warwick          N/A     32  23  69 W2          N/A
Suffern          N/A     34  28  80 CALM        N/A
Poughkeepsie   CLOUDY    32  23  69 CALM      30.10F
Albany         FLURRIES  24  15  68 CALM      30.08F
$$

NJZ001-105-106-008-010-013-015-019>022-104-181600-
New Jersey

CITY           SKY/WX    TMP DP  RH WIND       PRES   REMARKS
Newark/Liberty CLOUDY    38  32  79 N7        30.11S WCI  33
Teterboro      CLOUDY    36  29  75 N6        30.10F WCI  31
Caldwell       CLOUDY    36  28  73 CALM      30.12S
Somerville     CLOUDY    37  32  82 N3        30.10S
Linden         CLOUDY    37  31  78 CALM      30.11F
Perth Amboy      N/A     36 N/A N/A NW5         N/A  WCI  32
Sussex         CLOUDY    30  22  72 CALM      30.09F
Andover        NOT AVBL
Trenton        PTSUNNY   41  35  79 CALM      30.11S
Millville      SUNNY     45  38  76 W7        30.11S
Atlantic City  SUNNY     48  38  68 W6        30.10S
Wrightstown    SUNNY     40  35  82 CALM      30.08S
Toms River     CLOUDY    44  39  82 NW5       30.10F
Belmar         CLOUDY    40  38  93 N5        30.10F FOG
$$

PAZ047>061-062-071-181600-
Eastern Pennsylvania

CITY           SKY/WX    TMP DP  RH WIND       PRES   REMARKS
Philadelphia   PTSUNNY   41  34  76 NW3       30.13R
Allentown      CLOUDY    37  31  78 CALM      30.10F HAZE
Scranton       CLOUDY    35  31  85 NW3       30.06S FOG
$$

CTZ002-004>006-009-010-012-RIZ004-006-007-MAZ004-011-015-181600-
Southern New England

 In CT

CITY           SKY/WX    TMP DP  RH WIND       PRES   REMARKS
Bradley Intl   CLOUDY    28  14  55 CALM      30.12F
Hartford       CLOUDY    30  15  53 CALM      30.13F
Danbury        CLOUDY    31  21  66 E3        30.10F
Wtrbury/Oxford CLOUDY    31  22  69 CALM      30.08F
Norwalk Harbor   N/A     32 N/A N/A N7          N/A  WCI  26
Bridgeport     CLOUDY    34  22  61 N8        30.11  WCI  27
Meriden        CLOUDY    31  16  54 CALM      30.12F
New Haven      CLOUDY    33  20  58 N6        30.11F WCI  28
Chester        CLOUDY    34  19  55 CALM      30.09F
Groton         CLOUDY    34  23  64 NE5       30.11F WCI  30
Willimantic    CLOUDY    30  18  60 CALM      30.13F

 In RI

CITY           SKY/WX    TMP DP  RH WIND       PRES   REMARKS
Providence     CLOUDY    30  17  58 CALM      30.15F
Block Island   CLOUDY    41  34  76 SE9       30.12F
Westerly       CLOUDY    34  22  61 N3        30.13F

In MA

CITY           SKY/WX    TMP DP  RH WIND       PRES   REMARKS
Boston         FLURRIES  29  13  51 CALM      30.16F
Worcester      CLOUDY    24  12  60 S5        30.08F WCI  18
Westfield      CLOUDY    26  13  57 CALM      30.11F
Provincetown   CLOUDY    33  18  53 S7        30.17F WCI  27
Nantucket      CLOUDY    35  23  61 S7        30.16F WCI  29
$$

ANZ330-335-338-340-345-350-353-355-181600-
Coastal Marine Observations


STATION/POSITION TIME  SKY/WX   TEMP    WIND        PRES    VSBY  WAVE
                                AIR SEA DIR/SP/G                  HT/PER
                 (UTC)          (F)     (DEG/KT/KT) (MB)    (MI)  (FT/S)
NY Harb Entrance 1450            46 51   30/  6/  8 1018.6          2/ 4
20 S Fire Island 1450            49 51   30/  2/  2 1018.6          2/ 4
15 E Barnegat Li 1430               49                N/A           2/11
Hudson Canyon    1350            54 54  170/ 10/ 14 1018.1          2/10
Kings Point      1430            36 42   50/  7/  9 1020.5
Execution Rocks  1430            36      20/  8/ 10   N/A
Western LI Sound NOT AVBL
Central LI Sound 1430            41     100/ 10/ 10   N/A           1
Robbins Reef     1430            36     330/  5/  7 1020.1
$$


>>>>>>>>>>>>>>>>>>>>>>>>>>>> KEY <<<<<<<<<<<<<<<<<<<<<<<<<<<
>                                                          <
>     SKY/WX - Sky Condition/Present Weather               <
>     TMP    - Temperature in Fahrenheit                   <
>     DP     - Dew Point in Fahrenheit                     <
>     RH     - Relative Humidity in Percent                <
>     WIND   - Direction (from) and Speed in MPH           <
>     PRES   - Mean Sea Level Pressure (inches of Hg)      <
>     WCI    - Wind Chill Index                            <
>     VSB    - Visibility in Miles                         <
>     HX     - Heat Index                                  <
>     TC     - Temperature in Celsius                      <
>     VRB    - Varibale Wind Direction                     <
>                                                          <
>>>>>>>>>>>>>>>>>>>>>>>>>>>> KEY <<<<<<<<<<<<<<<<<<<<<<<<<<<




USA.gov is the U.S. government's official web portal to all federal, state and local government web resources and services.